Content
SEND FEEDBACK

Daily
Averages
Monthly
Summary
United States of America

WILMINGTON, NORTH CAROLINA


Home > North America > United States > North Carolina
Elevation: 21 meters     Latitude: 34 16N     Longitude: 077 54W

WEATHER
 
SELECT A DAY
Number of Records: 214,467;   Date Range: 1/1/95 - 12/27/14
 
SHARE

PRINT THIS DATA

[ ← Previous Day ]
WEATHER ALMANAC - 11 JANUARY, 2014
[ Next Day → ]
[ °F ]   °C
Weather ElementAverageHighLow
Temperature19.3 °C24 °C (11:56 am)15.6 °C (6:53 pm)
Dewpoint16.8 °C20.6 °C (10:53 am)12.8 °C (5:53 pm)
Humidity85.4 %93 % (7:53 pm)77 % (5:32 pm)
Barometer1010.8 hPa1019 hPa (12:53 am)1005.1 hPa (8:45 pm)
Wind Speed19.2 km/h44.4 km/h (3:25 pm)
Wind Gust61.2 km/h (1:53 pm)
Weather ElementAverage
Visibility12.9 km
Wind DirectionSW (222.3 °)

Weather ElementTotal
Precipitation73.91 mm
Cooling Degree Days1.5 (Base 18.3)
Growing Degree Days9.8 (Base 10)
Averaged from 53 records on 11 January, 2014
WEATHER CONDITIONS BREAKOUT
WIND DIRECTION BREAKOUT
WEATHER BY HOUR - 11 JANUARY, 2014
[ °F ]   °C
Local TimeTemperatureDewpointHumidityBarometerVisibilityWind DirectionWind SpeedGust SpeedPrecipitationEventsConditions
12:53 AM20 °C17.8 °C87 %1019 hPa16.1 kmSouth (180°)14.8 km/hMostly Cloudy
1:22 AM20 °C18 °C88 %1018.3 hPa16.1 kmSouth (180°)20.4 km/hOvercast
1:43 AM19 °C17 °C88 %1017.9 hPa16.1 kmSouth (180°)13 km/h29.6 km/hScattered Clouds
1:50 AM19 °C17 °C88 %1017.9 hPa16.1 kmSouth (180°)16.7 km/h25.9 km/hMostly Cloudy
1:53 AM19.4 °C17.8 °C90 %1017.9 hPa16.1 kmSouth (180°)13 km/hMostly Cloudy
2:22 AM19 °C17 °C88 %1017.6 hPa16.1 kmSouth (170°)11.1 km/hScattered Clouds
2:53 AM18.9 °C16.1 °C84 %1017.6 hPa16.1 kmSouth (180°)20.4 km/hScattered Clouds
3:53 AM19.4 °C17.2 °C87 %1016.3 hPa16.1 kmSouth (170°)13 km/hClear
4:53 AM20 °C18.3 °C90 %1015.6 hPa16.1 kmSouth (180°)16.7 km/hClear
5:53 AM20.6 °C17.8 °C84 %1015.2 hPa16.1 kmSouth (180°)20.4 km/hMostly Cloudy
6:26 AM21 °C18 °C83 %1015.2 hPa16.1 kmSSW (200°)22.2 km/h0 mmOvercast
6:41 AM21 °C19 °C88 %1015.2 hPa12.9 kmSSW (200°)14.8 km/h0.25 mmRainLight Rain
6:53 AM20.6 °C18.9 °C90 %1015.2 hPa14.5 kmSSW (200°)14.8 km/h0.25 mmRainLight Rain
7:07 AM21 °C19 °C88 %1015.2 hPa16.1 kmSSW (210°)16.7 km/h31.5 km/h0 mmOvercast
7:53 AM20.6 °C18.9 °C90 %1014.9 hPa16.1 kmSSW (200°)20.4 km/h0 mmOvercast
8:45 AM21 °C19 °C88 %1014.6 hPa14.5 kmSSW (210°)22.2 km/h0.25 mmRainLight Rain
8:53 AM21.7 °C19.4 °C87 %1014.6 hPa16.1 kmSSW (200°)22.2 km/h37 km/h0.25 mmOvercast
9:53 AM22.8 °C20 °C84 %1013.9 hPa16.1 kmSSW (210°)27.8 km/h38.9 km/h0 mmOvercast
10:17 AM23 °C19 °C78 %1013.9 hPa16.1 kmSSW (210°)27.8 km/h42.6 km/hOvercast
10:53 AM23.3 °C20.6 °C85 %1012.9 hPa11.3 kmSSW (200°)22.2 km/h46.3 km/h0.25 mmRainLight Rain
11:53 AM23.9 °C20 °C79 %1011.2 hPa12.9 kmSSW (210°)27.8 km/h48.1 km/h0 mmOvercast
11:56 AM24 °C20 °C78 %1011.2 hPa2.9 kmSSW (210°)29.6 km/h44.4 km/h0 mmRainHeavy Rain
12:04 PM23 °C20 °C83 %1010.8 hPa1.9 kmSSW (200°)24.1 km/h42.6 km/h3.3 mmRainLight Rain
12:06 PM23 °C20 °C83 %1010.8 hPa4.8 kmSSW (210°)24.1 km/h42.6 km/h3.3 mmRainLight Rain
12:25 PM22 °C20 °C88 %1010.2 hPa4.8 kmSSW (200°)29.6 km/h48.1 km/h4.06 mmRainLight Rain
12:53 PM22.8 °C20.6 °C87 %1009.1 hPa16.1 kmSSW (200°)24.1 km/h50.1 km/h4.06 mmOvercast
1:24 PM24 °C20 °C78 %1008.1 hPa16.1 kmSSW (210°)42.6 km/h59.2 km/hOvercast
1:53 PM23.9 °C20 °C79 %1007.5 hPa16.1 kmSSW (210°)40.7 km/h61.2 km/h0 mmOvercast
2:53 PM22.8 °C18.9 °C79 %1007.5 hPa16.1 kmSSW (210°)33.3 km/h57.5 km/hOvercast
3:25 PM22 °C19 °C83 %1007.1 hPa16.1 kmSW (220°)44.4 km/h55.5 km/h0 mmOvercast
3:53 PM21.1 °C18.3 °C84 %1007.5 hPa16.1 kmSW (220°)25.9 km/h50.1 km/h0 mmOvercast
4:53 PM20.6 °C18.3 °C87 %1007.1 hPa16.1 kmSSW (200°)22.2 km/h40.7 km/hOvercast
5:32 PM18 °C14 °C77 %1007.8 hPa16.1 kmWest (280°)13 km/h44.4 km/hOvercast
5:41 PM17 °C13 °C77 %1007.8 hPa16.1 kmWNW (290°)24.1 km/h37 km/hOvercast
5:53 PM16.7 °C12.8 °C78 %1007.5 hPa16.1 kmWNW (300°)13 km/h35.2 km/hOvercast
6:17 PM16 °C13 °C82 %1007.8 hPa2.9 kmWNW (300°)14.8 km/h3.56 mmRainHeavy Rain
6:22 PM16 °C13 °C82 %1007.8 hPa4.8 kmWNW (290°)13 km/h4.57 mmRainRain
6:24 PM16 °C13 °C82 %1007.8 hPa4 kmWNW (290°)16.7 km/h4.57 mmRain-ThunderstormRain
6:32 PM16 °C13 °C82 %1007.5 hPa2.9 kmWest (280°)11.1 km/h7.62 mmRain-ThunderstormRain
6:39 PM16 °C13 °C82 %1007.5 hPa4.8 kmWNW (290°)14.8 km/h8.89 mmRain-ThunderstormRain
6:48 PM16 °C14 °C88 %1007.5 hPa2.9 kmWest (260°)13 km/h10.41 mmRain-ThunderstormHeavy Thunderstorms and Rain
6:53 PM15.6 °C13.9 °C90 %1007.1 hPa3.2 kmWest (260°)11.1 km/h11.43 mmRain-ThunderstormHeavy Thunderstorms and Rain
7:03 PM16 °C14 °C88 %1006.8 hPa9.7 kmWest (260°)9.3 km/h0.76 mmRainLight Rain
7:13 PM16 °C14 °C88 %1007.1 hPa11.3 kmSW (220°)7.4 km/h1.02 mmRain-ThunderstormLight Thunderstorms and Rain
7:28 PM16 °C14 °C88 %1007.1 hPa11.3 kmSSW (210°)11.1 km/h2.03 mmRainRain
7:53 PM15.6 °C14.4 °C93 %1005.8 hPa12.9 kmSW (220°)11.1 km/h3.05 mmRainLight Rain
8:45 PM16 °C14 °C88 %1005.1 hPa16.1 kmWest (260°)11.1 km/h0 mmScattered Clouds
8:53 PM15.6 °C14.4 °C93 %1005.1 hPa16.1 kmWest (260°)7.4 km/h0 mmScattered Clouds
9:09 PM16 °C14 °C88 %1005.4 hPa16.1 kmWSW (250°)9.3 km/hMostly Cloudy
9:53 PM16.7 °C15 °C90 %1005.8 hPa16.1 kmWSW (250°)18.5 km/hOvercast
10:53 PM16.1 °C14.4 °C90 %1006.1 hPa16.1 kmWSW (240°)13 km/hMostly Cloudy
11:34 PM16 °C14 °C88 %1006.1 hPa16.1 kmSW (230°)14.8 km/hScattered Clouds
11:53 PM16.1 °C14.4 °C90 %1006.4 hPa16.1 kmSW (220°)14.8 km/hMostly Cloudy
Hourly data recorded from KILM, located 0 kilometers away from Wilmington, North Carolina







STORIES FROM OUR PARTNERS